Location: Hebron
(33.0265°N, 96.8636°W)
Time: 01:21:49
(UTC+00:00)

Cosmos 1812 - Pass Details

Date: 09 July 2022
Orbit: 508 x 515 km, 82.5° (Epoch: 08 August)

Event Time Altitude Azimuth Distance (km) Brightness Sun altitude
Rises 06:30:05 0° 8° (N) 2,626 7.3 -34.6°
Reaches altitude 10° 06:32:30 10° 22° (NNE) 1,734 6.0 -34.6°
Enters shadow 06:32:43 11° 24° (NNE) 1,662 5.9 -34.6°
